Time,TemperatureF,DewpointF,PressureIn,WindDirection,WindDirectionDegrees,WindSpeedMPH,WindSpeedGustMPH,Humidity,HourlyPrecipIn,Conditions,Clouds,dailyrainin,SoftwareType,DateUTC
2013-03-31 00:02:00,69.0,60.0,29.86,South,176,7.0,10.0,73,0.00,,,0.00,,2013-03-31 05:02:00,
2013-03-31 00:12:00,69.0,60.0,29.86,South,176,7.0,10.0,73,0.00,,,0.00,,2013-03-31 05:12:00,
2013-03-31 00:22:00,69.0,60.0,29.85,SSE,165,8.0,8.0,74,0.00,,,0.00,,2013-03-31 05:22:00,
2013-03-31 00:32:00,69.0,60.0,29.86,SSW,205,9.0,14.0,73,0.00,,,0.00,,2013-03-31 05:32:00,
2013-03-31 00:42:00,69.0,60.0,29.86,SSW,205,9.0,14.0,73,0.00,,,0.00,,2013-03-31 05:42:00,
2013-03-31 00:53:00,69.0,60.0,29.85,SW,215,8.0,8.0,73,0.00,,,0.00,,2013-03-31 05:53:00,
2013-03-31 01:02:00,69.0,60.0,29.85,SW,222,7.0,9.0,74,0.00,,,0.00,,2013-03-31 06:02:00,
2013-03-31 01:12:00,69.0,60.0,29.85,SW,222,7.0,9.0,74,0.00,,,0.00,,2013-03-31 06:12:00,
2013-03-31 01:22:00,68.0,59.0,29.86,SW,228,8.0,8.0,74,0.00,,,0.00,,2013-03-31 06:22:00,
2013-03-31 01:32:00,68.0,60.0,29.86,SSW,193,8.0,9.0,75,0.00,,,0.00,,2013-03-31 06:32:00,
2013-03-31 01:42:00,68.0,60.0,29.86,SSW,193,8.0,9.0,75,0.00,,,0.00,,2013-03-31 06:42:00,
2013-03-31 01:52:00,68.0,60.0,29.86,SW,217,8.0,8.0,76,0.00,,,0.00,,2013-03-31 06:52:00,
2013-03-31 02:02:00,68.0,61.0,29.85,South,169,8.0,8.0,77,0.00,,,0.00,,2013-03-31 07:02:00,
2013-03-31 02:12:00,68.0,61.0,29.85,South,169,8.0,8.0,77,0.00,,,0.00,,2013-03-31 07:12:00,
2013-03-31 02:22:00,68.0,61.0,29.85,SSW,194,8.0,9.0,78,0.00,,,0.00,,2013-03-31 07:22:00,
2013-03-31 02:42:00,68.0,61.0,29.86,SW,221,6.0,10.0,77,0.00,,,0.00,,2013-03-31 07:42:00,
2013-03-31 02:53:00,69.0,61.0,29.85,SE,139,9.0,15.0,76,0.00,,,0.00,,2013-03-31 07:53:00,
2013-03-31 03:02:00,70.0,61.0,29.85,SW,225,9.0,9.0,74,0.00,,,0.00,,2013-03-31 08:02:00,
2013-03-31 03:12:00,70.0,61.0,29.85,SW,225,9.0,9.0,74,0.00,,,0.00,,2013-03-31 08:12:00,
2013-03-31 03:22:00,69.0,61.0,29.85,SSW,211,7.0,7.0,75,0.00,,,0.00,,2013-03-31 08:22:00,
2013-03-31 03:32:00,68.0,60.0,29.85,SSW,204,5.0,6.0,76,0.00,,,0.00,,2013-03-31 08:32:00,
2013-03-31 03:42:00,68.0,60.0,29.85,SSW,204,5.0,6.0,76,0.00,,,0.00,,2013-03-31 08:42:00,
2013-03-31 03:52:00,66.0,60.0,29.86,WNW,298,3.0,3.0,81,0.00,,,0.00,,2013-03-31 08:52:00,
2013-03-31 04:02:00,64.0,59.0,29.86,SW,236,3.0,3.0,84,0.00,,,0.00,,2013-03-31 09:02:00,
2013-03-31 04:12:00,64.0,59.0,29.86,SW,236,3.0,3.0,84,0.00,,,0.00,,2013-03-31 09:12:00,
2013-03-31 04:22:00,62.0,58.0,29.86,West,262,3.0,3.0,87,0.00,,,0.00,,2013-03-31 09:22:00,
2013-03-31 04:33:00,62.0,59.0,29.86,West,271,3.0,3.0,89,0.00,,,0.00,,2013-03-31 09:33:00,
2013-03-31 04:42:00,62.0,59.0,29.86,West,271,3.0,3.0,89,0.00,,,0.00,,2013-03-31 09:42:00,
2013-03-31 04:53:00,61.0,58.0,29.86,WSW,253,0.0,2.0,90,0.00,,,0.00,,2013-03-31 09:53:00,
2013-03-31 05:03:00,61.0,58.0,29.86,WSW,253,2.0,2.0,91,0.00,,,0.00,,2013-03-31 10:03:00,
2013-03-31 05:13:00,61.0,58.0,29.86,WSW,253,2.0,2.0,91,0.00,,,0.00,,2013-03-31 10:13:00,
2013-03-31 05:23:00,61.0,59.0,29.86,West,264,0.0,0.0,92,0.00,,,0.00,,2013-03-31 10:23:00,
2013-03-31 05:32:00,62.0,60.0,29.87,WSW,239,3.0,3.0,92,0.00,,,0.00,,2013-03-31 10:32:00,
2013-03-31 05:42:00,62.0,60.0,29.87,WSW,239,3.0,3.0,92,0.00,,,0.00,,2013-03-31 10:42:00,
2013-03-31 05:53:00,62.0,59.0,29.87,SE,141,1.0,0.0,91,0.00,,,0.00,,2013-03-31 10:53:00,
2013-03-31 06:02:00,62.0,59.0,29.87,West,274,2.0,2.0,91,0.00,,,0.00,,2013-03-31 11:02:00,
2013-03-31 06:12:00,62.0,59.0,29.87,West,274,2.0,2.0,91,0.00,,,0.00,,2013-03-31 11:12:00,
2013-03-31 06:23:00,62.0,59.0,29.88,WSW,252,2.0,2.0,91,0.00,,,0.00,,2013-03-31 11:23:00,
2013-03-31 06:32:00,62.0,60.0,29.88,SSW,207,4.0,4.0,92,0.00,,,0.00,,2013-03-31 11:32:00,
2013-03-31 06:42:00,62.0,60.0,29.88,SSW,207,4.0,4.0,92,0.00,,,0.00,,2013-03-31 11:42:00,
2013-03-31 06:52:00,63.0,60.0,29.88,SW,225,2.0,2.0,90,0.00,,,0.00,,2013-03-31 11:52:00,
2013-03-31 07:03:00,63.0,60.0,29.88,WSW,242,3.0,4.0,89,0.00,,,0.00,,2013-03-31 12:03:00,
2013-03-31 07:12:00,63.0,60.0,29.88,WSW,242,3.0,4.0,89,0.00,,,0.00,,2013-03-31 12:12:00,
2013-03-31 07:22:00,63.0,60.0,29.89,SSW,194,2.0,3.0,90,0.00,,,0.00,,2013-03-31 12:22:00,
2013-03-31 07:33:00,62.0,59.0,29.89,South,191,3.0,3.0,89,0.00,,,0.00,,2013-03-31 12:33:00,
2013-03-31 07:42:00,62.0,59.0,29.89,South,191,3.0,3.0,89,0.00,,,0.00,,2013-03-31 12:42:00,
2013-03-31 07:53:00,62.0,59.0,29.90,SW,235,5.0,5.0,90,0.00,,,0.00,,2013-03-31 12:53:00,
2013-03-31 08:02:00,62.0,59.0,29.90,WSW,242,5.0,6.0,90,0.00,,,0.00,,2013-03-31 13:02:00,
2013-03-31 08:12:00,62.0,59.0,29.90,WSW,242,5.0,6.0,90,0.00,,,0.00,,2013-03-31 13:12:00,
2013-03-31 08:22:00,63.0,60.0,29.90,SSW,212,5.0,5.0,90,0.00,,,0.00,,2013-03-31 13:22:00,
2013-03-31 08:32:00,64.0,61.0,29.91,WSW,239,5.0,6.0,89,0.00,,,0.00,,2013-03-31 13:32:00,
2013-03-31 08:42:00,64.0,61.0,29.91,WSW,239,5.0,6.0,89,0.00,,,0.00,,2013-03-31 13:42:00,
2013-03-31 08:53:00,65.0,61.0,29.90,SW,217,7.0,9.0,86,0.00,,,0.00,,2013-03-31 13:53:00,
2013-03-31 09:02:00,67.0,62.0,29.90,SW,226,8.0,8.0,84,0.00,,,0.00,,2013-03-31 14:02:00,
2013-03-31 09:12:00,67.0,62.0,29.90,SW,226,8.0,8.0,84,0.00,,,0.00,,2013-03-31 14:12:00,
2013-03-31 09:22:00,67.0,62.0,29.91,SW,225,5.0,5.0,84,0.00,,,0.00,,2013-03-31 14:22:00,
2013-03-31 09:32:00,69.0,63.0,29.91,WSW,248,5.0,7.0,80,0.00,,,0.00,,2013-03-31 14:32:00,
2013-03-31 09:42:00,69.0,63.0,29.91,WSW,248,5.0,7.0,80,0.00,,,0.00,,2013-03-31 14:42:00,
2013-03-31 09:52:00,68.0,62.0,29.94,NNW,329,13.0,13.0,80,0.00,,,0.00,,2013-03-31 14:52:00,
2013-03-31 10:02:00,70.0,63.0,29.96,NW,321,9.0,11.0,79,0.00,,,0.00,,2013-03-31 15:02:00,
2013-03-31 10:12:00,70.0,63.0,29.96,NW,321,9.0,11.0,79,0.00,,,0.00,,2013-03-31 15:12:00,
2013-03-31 10:22:00,69.0,61.0,29.97,NNW,335,19.0,19.0,76,0.00,,,0.00,,2013-03-31 15:22:00,
2013-03-31 10:33:00,69.0,61.0,29.97,North,3,18.0,18.0,75,0.00,,,0.00,,2013-03-31 15:33:00,
2013-03-31 10:43:00,69.0,61.0,29.97,North,3,18.0,18.0,75,0.00,,,0.00,,2013-03-31 15:43:00,
2013-03-31 10:54:00,69.0,62.0,29.97,North,10,18.0,22.0,79,0.00,,,0.00,,2013-03-31 15:54:00,
2013-03-31 11:03:00,66.0,60.0,29.98,North,3,15.0,15.0,80,0.00,,,0.00,,2013-03-31 16:03:00,
2013-03-31 11:13:00,66.0,60.0,29.98,North,3,15.0,15.0,80,0.00,,,0.00,,2013-03-31 16:13:00,
2013-03-31 11:23:00,66.0,59.0,29.98,NNE,15,11.0,13.0,79,0.00,,,0.00,,2013-03-31 16:23:00,
2013-03-31 11:33:00,65.0,58.0,29.99,NE,34,12.0,12.0,77,0.00,,,0.00,,2013-03-31 16:33:00,
2013-03-31 11:42:00,65.0,58.0,29.99,NE,34,12.0,12.0,77,0.00,,,0.00,,2013-03-31 16:42:00,
2013-03-31 11:53:00,66.0,58.0,29.98,North,3,15.0,17.0,76,0.00,,,0.00,,2013-03-31 16:53:00,
2013-03-31 12:03:00,67.0,58.0,29.98,NNE,24,12.0,15.0,74,0.00,,,0.00,,2013-03-31 17:03:00,
2013-03-31 12:12:00,67.0,58.0,29.98,NNE,24,12.0,15.0,74,0.00,,,0.00,,2013-03-31 17:12:00,
2013-03-31 12:22:00,68.0,59.0,29.98,North,350,11.0,14.0,72,0.00,,,0.00,,2013-03-31 17:22:00,
2013-03-31 12:32:00,71.0,59.0,29.98,NE,49,10.0,14.0,66,0.00,,,0.00,,2013-03-31 17:32:00,
2013-03-31 12:42:00,71.0,59.0,29.98,NE,49,10.0,14.0,66,0.00,,,0.00,,2013-03-31 17:42:00,
2013-03-31 12:52:00,72.0,59.0,29.98,ENE,68,12.0,12.0,63,0.00,,,0.00,,2013-03-31 17:52:00,
2013-03-31 13:02:00,73.0,58.0,29.98,NE,55,10.0,14.0,60,0.00,,,0.00,,2013-03-31 18:02:00,
2013-03-31 13:12:00,73.0,58.0,29.98,NE,55,10.0,14.0,60,0.00,,,0.00,,2013-03-31 18:12:00,
2013-03-31 13:22:00,75.0,59.0,29.98,East,90,14.0,14.0,57,0.00,,,0.00,,2013-03-31 18:22:00,
2013-03-31 13:32:00,76.0,59.0,29.97,East,98,10.0,10.0,55,0.00,,,0.00,,2013-03-31 18:32:00,
2013-03-31 13:42:00,76.0,59.0,29.97,East,98,10.0,10.0,55,0.00,,,0.00,,2013-03-31 18:42:00,
2013-03-31 13:53:00,78.0,59.0,29.97,ESE,104,9.0,15.0,53,0.00,,,0.00,,2013-03-31 18:53:00,
2013-03-31 14:03:00,79.0,59.0,29.95,ENE,68,9.0,9.0,51,0.00,,,0.00,,2013-03-31 19:03:00,
2013-03-31 14:12:00,79.0,59.0,29.95,ENE,68,9.0,9.0,51,0.00,,,0.00,,2013-03-31 19:12:00,
2013-03-31 14:22:00,79.0,58.0,29.94,NNE,13,11.0,12.0,48,0.00,,,0.00,,2013-03-31 19:22:00,
2013-03-31 14:32:00,80.0,59.0,29.93,ENE,63,10.0,12.0,48,0.00,,,0.00,,2013-03-31 19:32:00,
2013-03-31 14:42:00,80.0,59.0,29.93,ENE,63,10.0,12.0,48,0.00,,,0.00,,2013-03-31 19:42:00,
2013-03-31 14:54:00,80.0,57.0,29.93,NE,53,10.0,10.0,46,0.00,,,0.00,,2013-03-31 19:54:00,
2013-03-31 15:02:00,80.0,57.0,29.92,East,79,11.0,11.0,45,0.00,,,0.00,,2013-03-31 20:02:00,
2013-03-31 15:12:00,80.0,57.0,29.92,East,79,11.0,11.0,45,0.00,,,0.00,,2013-03-31 20:12:00,
2013-03-31 15:22:00,80.0,56.0,29.92,NE,44,9.0,16.0,44,0.00,,,0.00,,2013-03-31 20:22:00,
2013-03-31 15:33:00,81.0,56.0,29.91,ENE,62,10.0,11.0,43,0.00,,,0.00,,2013-03-31 20:33:00,
2013-03-31 15:43:00,81.0,56.0,29.91,ENE,62,10.0,11.0,43,0.00,,,0.00,,2013-03-31 20:43:00,
2013-03-31 15:52:00,82.0,56.0,29.90,ENE,62,7.0,10.0,41,0.00,,,0.00,,2013-03-31 20:52:00,
2013-03-31 16:02:00,81.0,56.0,29.90,ENE,70,9.0,15.0,43,0.00,,,0.00,,2013-03-31 21:02:00,
2013-03-31 16:12:00,81.0,56.0,29.90,ENE,70,9.0,15.0,43,0.00,,,0.00,,2013-03-31 21:12:00,
2013-03-31 16:22:00,81.0,55.0,29.89,NE,41,10.0,10.0,41,0.00,,,0.00,,2013-03-31 21:22:00,
2013-03-31 16:33:00,81.0,56.0,29.88,East,101,10.0,10.0,42,0.00,,,0.00,,2013-03-31 21:33:00,
2013-03-31 16:43:00,81.0,56.0,29.88,East,101,10.0,10.0,42,0.00,,,0.00,,2013-03-31 21:43:00,
2013-03-31 16:53:00,82.0,56.0,29.88,NNE,15,5.0,11.0,41,0.00,,,0.00,,2013-03-31 21:53:00,
2013-03-31 17:03:00,81.0,54.0,29.87,NNW,336,9.0,9.0,40,0.00,,,0.00,,2013-03-31 22:03:00,
2013-03-31 17:13:00,81.0,54.0,29.87,NNW,336,9.0,9.0,40,0.00,,,0.00,,2013-03-31 22:13:00,
2013-03-31 17:23:00,81.0,54.0,29.87,ENE,59,6.0,6.0,40,0.00,,,0.00,,2013-03-31 22:23:00,
2013-03-31 17:33:00,81.0,54.0,29.87,NE,38,9.0,9.0,40,0.00,,,0.00,,2013-03-31 22:33:00,
2013-03-31 17:42:00,81.0,54.0,29.87,NE,38,9.0,9.0,40,0.00,,,0.00,,2013-03-31 22:42:00,
2013-03-31 17:53:00,81.0,54.0,29.87,North,357,7.0,9.0,40,0.00,,,0.00,,2013-03-31 22:53:00,
2013-03-31 18:03:00,81.0,54.0,29.87,NE,35,9.0,9.0,40,0.00,,,0.00,,2013-03-31 23:03:00,
2013-03-31 18:13:00,81.0,54.0,29.87,NE,35,9.0,9.0,40,0.00,,,0.00,,2013-03-31 23:13:00,
2013-03-31 18:22:00,80.0,54.0,29.86,East,82,5.0,7.0,41,0.00,,,0.00,,2013-03-31 23:22:00,
2013-03-31 18:32:00,80.0,54.0,29.86,North,354,10.0,10.0,41,0.00,,,0.00,,2013-03-31 23:32:00,
2013-03-31 18:42:00,80.0,54.0,29.86,North,354,10.0,10.0,41,0.00,,,0.00,,2013-03-31 23:42:00,
2013-03-31 18:53:00,79.0,53.0,29.87,NNE,20,6.0,6.0,41,0.00,,,0.00,,2013-03-31 23:53:00,
2013-03-31 19:02:00,79.0,54.0,29.87,NE,53,10.0,10.0,42,0.00,,,0.00,,2013-04-01 00:02:00,
2013-03-31 19:12:00,79.0,54.0,29.87,NE,53,10.0,10.0,42,0.00,,,0.00,,2013-04-01 00:12:00,
2013-03-31 19:22:00,79.0,54.0,29.87,NNE,21,8.0,10.0,42,0.00,,,0.00,,2013-04-01 00:22:00,
2013-03-31 19:32:00,78.0,54.0,29.87,NE,39,9.0,10.0,43,0.00,,,0.00,,2013-04-01 00:32:00,
2013-03-31 19:42:00,78.0,54.0,29.87,NE,39,9.0,10.0,43,0.00,,,0.00,,2013-04-01 00:42:00,
2013-03-31 19:53:00,77.0,54.0,29.88,NNE,28,5.0,7.0,45,0.00,,,0.00,,2013-04-01 00:53:00,
2013-03-31 20:02:00,76.0,54.0,29.88,NNE,27,6.0,6.0,46,0.00,,,0.00,,2013-04-01 01:02:00,
2013-03-31 20:12:00,76.0,54.0,29.88,NNE,27,6.0,6.0,46,0.00,,,0.00,,2013-04-01 01:12:00,
2013-03-31 20:22:00,74.0,53.0,29.89,NE,46,6.0,6.0,48,0.00,,,0.00,,2013-04-01 01:22:00,
2013-03-31 20:32:00,73.0,53.0,29.90,NE,41,4.0,4.0,50,0.00,,,0.00,,2013-04-01 01:32:00,
2013-03-31 20:42:00,73.0,53.0,29.90,NE,41,4.0,4.0,50,0.00,,,0.00,,2013-04-01 01:42:00,
2013-03-31 20:53:00,72.0,53.0,29.91,ENE,65,5.0,5.0,52,0.00,,,0.00,,2013-04-01 01:53:00,
2013-03-31 21:02:00,71.0,53.0,29.91,ENE,72,4.0,4.0,53,0.00,,,0.00,,2013-04-01 02:02:00,
2013-03-31 21:12:00,71.0,53.0,29.91,ENE,72,4.0,4.0,53,0.00,,,0.00,,2013-04-01 02:12:00,
2013-03-31 21:22:00,69.0,52.0,29.92,ENE,60,5.0,5.0,55,0.00,,,0.00,,2013-04-01 02:22:00,
2013-03-31 21:32:00,68.0,52.0,29.93,NE,35,5.0,5.0,57,0.00,,,0.00,,2013-04-01 02:32:00,
2013-03-31 21:42:00,68.0,52.0,29.93,NE,35,5.0,5.0,57,0.00,,,0.00,,2013-04-01 02:42:00,
2013-03-31 21:53:00,68.0,53.0,29.93,NE,45,5.0,5.0,58,0.00,,,0.00,,2013-04-01 02:53:00,
2013-03-31 22:02:00,67.0,52.0,29.94,NE,44,4.0,4.0,59,0.00,,,0.00,,2013-04-01 03:02:00,
2013-03-31 22:12:00,67.0,52.0,29.94,NE,44,4.0,4.0,59,0.00,,,0.00,,2013-04-01 03:12:00,
2013-03-31 22:22:00,67.0,53.0,29.95,NNE,24,5.0,5.0,60,0.00,,,0.00,,2013-04-01 03:22:00,
2013-03-31 22:34:00,64.0,52.0,29.96,NE,41,4.0,4.0,64,0.00,,,0.00,,2013-04-01 03:34:00,
2013-03-31 22:43:00,64.0,52.0,29.96,NE,41,4.0,4.0,64,0.00,,,0.00,,2013-04-01 03:43:00,
2013-03-31 22:53:00,63.0,51.0,29.97,NNE,21,5.0,5.0,65,0.00,,,0.00,,2013-04-01 03:53:00,
2013-03-31 23:02:00,62.0,51.0,29.97,North,10,5.0,5.0,68,0.00,,,0.00,,2013-04-01 04:02:00,
2013-03-31 23:13:00,62.0,51.0,29.97,North,10,5.0,5.0,68,0.00,,,0.00,,2013-04-01 04:13:00,
2013-03-31 23:23:00,63.0,52.0,29.98,NE,45,4.0,4.0,68,0.00,,,0.00,,2013-04-01 04:23:00,
2013-03-31 23:33:00,62.0,51.0,29.98,NNE,18,4.0,4.0,68,0.00,,,0.00,,2013-04-01 04:33:00,
2013-03-31 23:43:00,62.0,51.0,29.98,NNE,18,4.0,4.0,68,0.00,,,0.00,,2013-04-01 04:43:00,
2013-03-31 23:53:00,62.0,51.0,29.98,NNE,30,3.0,3.0,68,0.00,,,0.00,,2013-04-01 04:53:00,